Location: Clandonald
(53.5720°N, 110.7141°W)
Time: 02:38:55
(UTC+00:00)

Envisat - Pass Details

Date: 29 October 2019
Orbit: 764 x 766 km, 98.1° (Epoch: 21 November)

Event Time Altitude Azimuth Distance (km) Brightness Sun altitude
Rises 01:55:04 0° 186° (S) 3,223 6.3 -17.8°
Reaches altitude 10° 01:57:29 10° 194° (SSW) 2,301 5.6 -18.2°
Maximum altitude 02:02:15 40° 263° (W) 1,124 4.4 -18.9°
Drops below altitude 10° 02:07:03 10° 333° (NNW) 2,316 5.9 -19.6°
Sets 02:09:31 0° 341° (NNW) 3,247 6.6 -20.0°
